Terminal Aerodrome Forecast
Issued by NWS Quad Cities IA IL

Home | Current Version | Previous Version | Text Only | Print | Product List | Glossary On
Versions: 1 2 3 4 5 6 7 8 9 10 11 12 13 14 15 16 17 18 19 20 21 22
000
FTUS43 KDVN 011416 CCA
TAFDBQ
TAF COR
KDBQ 011416Z 0114/0212 04006KT 6SM BR OVC012
     FM011500 07006KT P6SM SCT020 BKN250
     FM012100 04007KT P6SM OVC120=

USA.gov is the U.S. government's official web portal to all federal, state and local government web resources and services.